This is the latest recevied weather packets stored in our database for station/object K7FRY. If no packets are shown the sender has not sent any weather packets the latest 10 day(s).
| Time | Temp. | Humidity | Pressure | Rain* | Wind** | Luminosity | Snow |
|---|---|---|---|---|---|---|---|
| 1778032909 | 20.56° C | 38% | 1011.9 hPa | 0 mm | - | 3 W/m² | - |
| 1778032606 | 20.56° C | 37% | 1012 hPa | 0 mm | - | 6 W/m² | - |
| 1778032304 | 20.56° C | 38% | 1011.8 hPa | 0 mm | - | 10 W/m² | - |
| 1778032001 | 20.56° C | 39% | 1011.8 hPa | 0 mm | - | 13 W/m² | - |
| 1778031697 | 20.56° C | 39% | 1011.6 hPa | 0 mm | - | 16 W/m² | - |
| 1778031395 | 20.56° C | 40% | 1011.5 hPa | 0 mm | - | 20 W/m² | - |
| 1778031092 | 20.56° C | 41% | 1011.6 hPa | 0 mm | - | 24 W/m² | - |
| 1778030788 | 20.56° C | 41% | 1011.6 hPa | 0 mm | - | 25 W/m² | - |
| 1778030484 | 20.56° C | 42% | 1011.5 hPa | 0 mm | - | 27 W/m² | - |
| 1778030182 | 20.56° C | 42% | 1011.5 hPa | 0 mm | - | 27 W/m² | - |
| 1778029872 | 20.56° C | 42% | 1011.4 hPa | 0 mm | - | 28 W/m² | - |
| 1778029572 | 20.56° C | 42% | 1011.4 hPa | 0 mm | - | 32 W/m² | - |
| 1778029268 | 20.56° C | 43% | 1011.5 hPa | 0 mm | - | 36 W/m² | - |
| 1778028965 | 20.56° C | 44% | 1011.5 hPa | 0 mm | - | 39 W/m² | - |
| 1778028661 | 20.56° C | 43% | 1011.5 hPa | 0 mm | - | 94 W/m² | - |
| 1778028359 | 21.11° C | 43% | 1011.3 hPa | 0 mm | - | 43 W/m² | - |
| 1778028055 | 21.67° C | 42% | 1011.5 hPa | 0 mm | - | 125 W/m² | - |
| 1778027751 | 21.67° C | 40% | 1011.3 hPa | 0 mm | - | 150 W/m² | - |
| 1778027448 | 21.67° C | 40% | 1011.2 hPa | 0 mm | - | 160 W/m² | - |
| 1778027144 | 21.11° C | 40% | 1011.3 hPa | 0 mm | - | 52 W/m² | - |
| 1778026840 | 21.11° C | 41% | 1011.4 hPa | 0 mm | - | 55 W/m² | - |
| 1778026536 | 21.67° C | 40% | 1011.1 hPa | 0 mm | - | 55 W/m² | - |
| 1778026234 | 22.78° C | 38% | 1011 hPa | 0 mm | - | 50 W/m² | - |
| 1778025931 | 23.33° C | 34% | 1010.9 hPa | 0 mm | - | 277 W/m² | - |
| 1778025628 | 23.33° C | 33% | 1011 hPa | 0 mm | - | 294 W/m² | - |
* Rain latest hour (hover to see other rain measurements)
** Current wind speed in m/s (hover to see current wind gust speed)